TimeEDT,TemperatureF,Dew PointF,Humidity,Sea Level PressureIn,VisibilityMPH,Wind Direction,Wind SpeedMPH,Gust SpeedMPH,PrecipitationIn,Events,Conditions,WindDirDegrees,DateUTC
12:15 AM,69.3,64.2,84,29.94,10.0,Calm,Calm,-,N/A,,Overcast,0,2013-07-01 04:15:00
12:35 AM,68.7,63.7,84,29.94,10.0,Calm,Calm,-,N/A,,Overcast,0,2013-07-01 04:35:00
12:55 AM,67.1,62.1,84,29.94,10.0,Calm,Calm,-,N/A,,Overcast,0,2013-07-01 04:55:00
1:15 AM,67.1,62.6,85,29.94,10.0,Calm,Calm,-,N/A,,Overcast,0,2013-07-01 05:15:00
1:35 AM,67.1,62.6,85,29.94,10.0,Calm,Calm,-,N/A,,Mostly Cloudy,0,2013-07-01 05:35:00
1:55 AM,66.9,62.1,84,29.94,10.0,Calm,Calm,-,N/A,,Mostly Cloudy,0,2013-07-01 05:55:00
2:15 AM,65.7,61.2,85,29.94,10.0,Calm,Calm,-,N/A,,Mostly Cloudy,0,2013-07-01 06:15:00
2:35 AM,64.4,60.3,86,29.94,10.0,Calm,Calm,-,N/A,,Scattered Clouds,0,2013-07-01 06:35:00
2:55 AM,64.4,60.3,86,29.95,10.0,Calm,Calm,-,N/A,,Clear,0,2013-07-01 06:55:00
3:15 AM,63.7,60.1,88,29.95,10.0,Calm,Calm,-,N/A,,Clear,0,2013-07-01 07:15:00
3:35 AM,63.0,59.9,90,29.95,10.0,Calm,Calm,-,N/A,,Clear,0,2013-07-01 07:35:00
3:55 AM,61.9,59.0,90,29.95,10.0,Calm,Calm,-,N/A,,Clear,0,2013-07-01 07:55:00
4:15 AM,62.1,59.2,90,29.95,10.0,Calm,Calm,-,N/A,,Clear,0,2013-07-01 08:15:00
4:35 AM,62.2,59.4,90,29.96,10.0,Calm,Calm,-,N/A,,Clear,0,2013-07-01 08:35:00
4:55 AM,61.9,59.0,90,29.97,10.0,Calm,Calm,-,N/A,,Clear,0,2013-07-01 08:55:00
5:15 AM,61.9,59.2,91,29.98,10.0,Calm,Calm,-,N/A,,Scattered Clouds,0,2013-07-01 09:15:00
5:35 AM,61.9,59.2,91,29.98,10.0,Calm,Calm,-,N/A,,Scattered Clouds,0,2013-07-01 09:35:00
5:55 AM,62.1,59.4,91,29.99,10.0,Calm,Calm,-,N/A,,Mostly Cloudy,0,2013-07-01 09:55:00
6:15 AM,62.2,59.5,91,29.98,10.0,Calm,Calm,-,N/A,,Scattered Clouds,0,2013-07-01 10:15:00
6:35 AM,64.4,61.9,92,29.99,7.0,Calm,Calm,-,N/A,,Clear,0,2013-07-01 10:35:00
6:55 AM,64.9,62.1,90,30.00,7.0,Calm,Calm,-,N/A,,Clear,0,2013-07-01 10:55:00
7:15 AM,67.1,63.5,88,30.01,10.0,Calm,Calm,-,N/A,,Clear,0,2013-07-01 11:15:00
7:35 AM,69.1,64.9,87,30.01,10.0,North,3.5,-,N/A,,Clear,360,2013-07-01 11:35:00
7:55 AM,69.4,62.4,78,30.01,10.0,NNE,3.5,-,N/A,,Clear,30,2013-07-01 11:55:00
8:15 AM,72.3,60.8,67,30.01,10.0,NNE,3.5,-,N/A,,Clear,30,2013-07-01 12:15:00
8:35 AM,73.0,61.9,68,30.02,10.0,North,4.6,-,N/A,,Clear,10,2013-07-01 12:35:00
8:55 AM,70.2,61.7,74,30.02,10.0,NNW,4.6,-,N/A,,Clear,340,2013-07-01 12:55:00
9:15 AM,72.1,62.6,72,30.03,10.0,North,5.8,-,N/A,,Scattered Clouds,350,2013-07-01 13:15:00
9:35 AM,71.8,63.0,74,30.03,10.0,NNW,5.8,-,N/A,,Mostly Cloudy,340,2013-07-01 13:35:00
9:55 AM,73.9,64.2,72,30.03,10.0,NNW,6.9,-,N/A,,Scattered Clouds,340,2013-07-01 13:55:00
10:15 AM,74.5,64.0,70,30.04,10.0,North,6.9,-,N/A,,Scattered Clouds,360,2013-07-01 14:15:00
10:35 AM,74.5,63.1,68,30.05,10.0,North,4.6,-,N/A,,Clear,360,2013-07-01 14:35:00
10:55 AM,74.5,61.5,64,30.04,10.0,NNW,5.8,-,N/A,,Clear,330,2013-07-01 14:55:00
11:15 AM,74.5,60.8,62,30.05,10.0,North,5.8,-,N/A,,Clear,360,2013-07-01 15:15:00
11:35 AM,74.7,60.3,61,30.05,10.0,NNE,5.8,-,N/A,,Clear,30,2013-07-01 15:35:00
11:55 AM,74.5,60.4,61,30.05,10.0,NNE,8.1,-,N/A,,Clear,20,2013-07-01 15:55:00
12:15 PM,74.5,60.8,62,30.05,10.0,North,8.1,-,N/A,,Clear,10,2013-07-01 16:15:00
12:35 PM,76.3,62.2,62,30.05,10.0,North,8.1,-,N/A,,Clear,10,2013-07-01 16:35:00
12:55 PM,77.0,60.8,57,30.05,10.0,NNE,10.4,-,N/A,,Clear,30,2013-07-01 16:55:00
1:15 PM,77.0,60.4,56,30.05,10.0,North,8.1,-,N/A,,Scattered Clouds,10,2013-07-01 17:15:00
1:35 PM,77.0,59.5,55,30.05,10.0,NNE,8.1,-,N/A,,Scattered Clouds,20,2013-07-01 17:35:00
1:55 PM,77.0,59.0,54,30.05,10.0,NNE,8.1,-,N/A,,Scattered Clouds,20,2013-07-01 17:55:00
2:15 PM,77.0,58.5,53,30.05,10.0,NNE,9.2,-,N/A,,Scattered Clouds,20,2013-07-01 18:15:00
2:35 PM,77.0,59.9,55,30.05,10.0,North,6.9,-,N/A,,Scattered Clouds,10,2013-07-01 18:35:00
2:55 PM,77.0,60.3,56,30.05,10.0,North,8.1,-,N/A,,Scattered Clouds,360,2013-07-01 18:55:00
3:15 PM,77.0,60.1,56,30.05,10.0,North,8.1,-,N/A,,Clear,10,2013-07-01 19:15:00
3:35 PM,75.0,58.5,56,30.05,10.0,NNE,10.4,-,N/A,,Clear,20,2013-07-01 19:35:00
3:55 PM,74.5,58.5,57,30.05,10.0,North,10.4,-,N/A,,Scattered Clouds,10,2013-07-01 19:55:00
4:15 PM,74.5,57.9,56,30.05,10.0,NNE,9.2,-,N/A,,Clear,20,2013-07-01 20:15:00
4:35 PM,74.5,57.7,56,30.05,10.0,North,8.1,-,N/A,,Clear,360,2013-07-01 20:35:00
4:55 PM,74.5,58.1,57,30.06,10.0,NNE,5.8,-,N/A,,Clear,20,2013-07-01 20:55:00
5:15 PM,74.5,55.4,51,30.06,10.0,North,8.1,-,N/A,,Scattered Clouds,10,2013-07-01 21:15:00
5:35 PM,74.5,56.3,53,30.06,10.0,North,8.1,-,N/A,,Mostly Cloudy,360,2013-07-01 21:35:00
5:55 PM,74.5,58.1,57,30.06,10.0,North,8.1,-,N/A,,Mostly Cloudy,360,2013-07-01 21:55:00
6:15 PM,74.5,58.5,57,30.06,10.0,North,9.2,-,N/A,,Scattered Clouds,10,2013-07-01 22:15:00
6:35 PM,74.5,57.7,56,30.06,10.0,North,9.2,-,N/A,,Scattered Clouds,10,2013-07-01 22:35:00
6:55 PM,72.0,55.8,57,30.07,10.0,NNE,8.1,-,N/A,,Scattered Clouds,20,2013-07-01 22:55:00
7:15 PM,72.0,55.0,55,30.06,10.0,NNE,8.1,-,N/A,,Scattered Clouds,20,2013-07-01 23:15:00
7:35 PM,70.7,54.7,57,30.07,10.0,NNE,5.8,-,N/A,,Clear,20,2013-07-01 23:35:00
7:55 PM,70.0,54.1,57,30.07,10.0,NNE,9.2,-,N/A,,Scattered Clouds,20,2013-07-01 23:55:00
8:15 PM,69.4,55.9,62,30.07,10.0,NNE,5.8,-,N/A,Rain,Rain,20,2013-07-02 00:15:00
8:35 PM,69.4,56.3,63,30.08,10.0,NNE,5.8,-,N/A,,Light Drizzle,30,2013-07-02 00:35:00
8:55 PM,69.4,55.6,61,30.08,10.0,NNE,6.9,-,N/A,,Light Drizzle,20,2013-07-02 00:55:00
9:15 PM,69.3,56.7,64,30.08,10.0,North,4.6,-,N/A,Rain,Light Rain,10,2013-07-02 01:15:00
9:35 PM,66.9,56.8,70,30.09,10.0,North,4.6,-,N/A,Rain,Light Rain,360,2013-07-02 01:35:00
9:55 PM,65.8,56.3,71,30.09,10.0,NNE,4.6,-,N/A,,Light Drizzle,20,2013-07-02 01:55:00
10:15 PM,64.9,55.6,72,30.10,10.0,NNE,5.8,-,N/A,Rain,Light Rain,30,2013-07-02 02:15:00
10:35 PM,66.4,56.5,70,30.11,10.0,Calm,Calm,-,N/A,Rain,Light Rain,0,2013-07-02 02:35:00
10:55 PM,64.4,56.3,75,30.10,10.0,NNE,3.5,-,N/A,Rain,Light Rain,20,2013-07-02 02:55:00
11:15 PM,64.4,57.7,79,30.11,10.0,Calm,Calm,-,N/A,,Drizzle,0,2013-07-02 03:15:00
11:35 PM,62.6,57.4,83,30.10,7.0,Calm,Calm,-,N/A,Rain,Rain,0,2013-07-02 03:35:00
11:55 PM,62.1,56.5,82,30.10,10.0,NNE,3.5,-,N/A,,Light Drizzle,30,2013-07-02 03:55:00